Date String (YYYY-MM-DD hh:mm:ss) UTC,Instrument flags,Ambient pressure (hPa),Sample flow (lpm),Bypass flow (lpm),Sample temperature (°C),Ambient temperature (°C),ASC tube jacket temperature (°C),LED temperature (°C),Box temperature (°C),Sample RH (%),Span deviation,Mass concentration (μg/m³),Mass concentration (μg/m³),Mass concentration (μg/m³)
DateTimeUTC,F1_M11,P_M11,Q1_M11,Q2_M11,T1_M11,T2_M11,T3_M11,T4_M11,T5_M11,U1_M11,ZSPAN_M11,X0_M11,X2_M11,X1_M11
2022-10-03 07:00:00,,0829.2,5.01,0.00,30.2,28.8,00.0,38.9,32.0,20.0,0000.0,0007.41,0003.14,0002.51
2022-10-03 07:01:00,,0829.2,4.99,0.00,30.2,28.8,00.0,38.9,32.0,20.3,0000.0,0007.43,0003.15,0002.50
2022-10-03 07:02:00,,0829.2,5.00,0.00,30.2,28.8,00.0,38.9,32.0,20.8,0000.0,0007.37,0003.13,0002.51
2022-10-03 07:03:00,,0829.2,5.00,0.00,30.2,28.8,00.0,38.9,32.0,21.5,0000.0,0007.35,0003.11,0002.52
2022-10-03 07:04:00,,0829.1,4.99,0.00,30.2,28.8,00.0,39.0,32.0,21.5,0000.0,0006.91,0003.07,0002.52
2022-10-03 07:05:00,,0829.1,5.01,0.00,30.2,28.8,00.0,39.0,32.0,21.6,0000.0,0004.63,0003.05,0002.54
2022-10-03 07:06:00,,0829.2,4.99,0.00,30.2,28.8,00.0,39.0,32.0,21.6,0000.0,0004.30,0003.00,0002.56
2022-10-03 07:07:00,,0829.2,5.00,0.00,30.2,28.8,00.0,39.0,32.0,21.3,0000.0,0004.20,0002.99,0002.59
2022-10-03 07:08:00,,0829.2,5.01,0.00,30.2,28.8,00.0,39.0,32.0,21.4,0000.0,0004.14,0003.01,0002.61
2022-10-03 07:09:00,,0829.3,4.99,0.00,30.2,28.8,00.0,39.0,32.0,21.4,0000.0,0004.05,0003.00,0002.63
2022-10-03 07:10:00,,0829.3,5.00,0.00,30.2,28.8,00.0,39.0,32.0,21.4,0000.0,0004.13,0003.05,0002.68
2022-10-03 07:11:00,,0829.2,5.01,0.00,30.2,28.8,00.0,39.0,32.0,21.2,0000.0,0004.09,0003.06,0002.72
2022-10-03 07:12:00,,0829.2,5.00,0.00,30.2,28.8,00.0,39.0,32.0,21.2,0000.0,0004.14,0003.10,0002.76
2022-10-03 07:13:00,,0829.3,5.00,0.00,30.2,28.8,00.0,39.0,32.0,21.2,0000.0,0004.36,0003.16,0002.79
2022-10-03 07:14:00,,0829.2,5.02,0.00,30.2,28.8,00.0,39.0,32.0,21.1,0000.0,0004.46,0003.20,0002.81
2022-10-03 07:15:00,,0829.2,4.98,0.00,30.2,28.8,00.0,39.0,32.0,21.0,0000.0,0004.98,0003.25,0002.84
2022-10-03 07:16:00,,0829.2,5.01,0.00,30.2,28.8,00.0,39.0,32.0,21.0,0000.0,0005.50,0003.28,0002.87
2022-10-03 07:17:00,,0829.3,5.01,0.00,30.2,28.8,00.0,39.0,32.0,21.0,0000.0,0006.00,0003.33,0002.90
2022-10-03 07:18:00,,0829.3,4.98,0.00,30.2,28.7,00.0,39.0,32.0,21.1,0000.0,0006.27,0003.37,0002.91
2022-10-03 07:19:00,,0829.2,5.01,0.00,30.2,28.7,00.0,39.0,32.0,21.2,0000.0,0006.30,0003.38,0002.92
2022-10-03 07:20:00,,0829.2,5.01,0.00,30.2,28.6,00.0,39.0,32.0,21.1,0000.0,0006.30,0003.38,0002.91
2022-10-03 07:21:00,,0829.2,5.00,0.00,30.2,28.5,00.0,39.0,32.0,21.1,0000.0,0006.36,0003.40,0002.92
2022-10-03 07:22:00,,0829.2,4.99,0.00,30.2,28.5,00.0,39.0,31.9,21.2,0000.0,0006.39,0003.40,0002.93
2022-10-03 07:23:00,,0829.2,5.01,0.00,30.2,28.5,00.0,39.0,31.9,21.2,0000.0,0006.56,0003.42,0002.95
2022-10-03 07:24:00,,0829.2,5.01,0.00,30.1,28.5,00.0,39.0,31.9,21.2,0000.0,0006.63,0003.41,0002.96
2022-10-03 07:25:00,,0829.2,4.99,0.00,30.1,28.5,00.0,39.0,31.9,21.2,0000.0,0006.60,0003.41,0002.97
2022-10-03 07:26:00,,0829.2,5.00,0.00,30.1,28.5,00.0,38.9,31.9,21.2,0000.0,0006.07,0003.38,0002.97
2022-10-03 07:27:00,,0829.2,5.00,0.00,30.1,28.5,00.0,38.9,31.9,21.1,0000.0,0005.68,0003.37,0002.96
2022-10-03 07:28:00,,0829.2,4.99,0.00,30.1,28.5,00.0,38.9,31.9,20.9,0000.0,0005.20,0003.33,0002.94
2022-10-03 07:29:00,,0829.2,5.00,0.00,30.1,28.4,00.0,38.9,31.9,20.9,0000.0,0005.40,0003.31,0002.91
2022-10-03 07:30:00,,0829.2,5.01,0.00,30.1,28.5,00.0,38.9,31.9,20.8,0000.0,0005.55,0003.33,0002.91
2022-10-03 07:31:00,,0829.2,4.99,0.00,30.1,28.5,00.0,38.9,31.9,20.9,0000.0,0005.79,0003.33,0002.92
2022-10-03 07:32:00,,0829.1,5.01,0.00,30.1,28.5,00.0,38.9,31.9,20.6,0000.0,0005.85,0003.31,0002.90
2022-10-03 07:33:00,,0829.2,5.00,0.00,30.1,28.5,00.0,38.9,31.9,20.7,0000.0,0006.13,0003.30,0002.88
2022-10-03 07:34:00,,0829.2,4.99,0.00,30.1,28.5,00.0,38.9,31.9,20.9,0000.0,0006.18,0003.25,0002.85
2022-10-03 07:35:00,,0829.2,5.01,0.00,30.1,28.5,00.0,38.9,31.9,20.7,0000.0,0005.98,0003.24,0002.83
2022-10-03 07:36:00,,0829.2,5.00,0.00,30.1,28.5,00.0,38.9,31.8,20.6,0000.0,0006.14,0003.20,0002.81
2022-10-03 07:37:00,,0829.2,4.98,0.00,30.0,28.4,00.0,38.9,31.8,20.6,0000.0,0006.53,0003.19,0002.78
2022-10-03 07:38:00,,0829.1,5.00,0.00,30.0,28.4,00.0,38.9,31.8,20.6,0000.0,0006.55,0003.19,0002.77
2022-10-03 07:39:00,,0829.1,5.00,0.00,30.0,28.3,00.0,38.9,31.8,20.5,0000.0,0006.49,0003.17,0002.74
2022-10-03 07:40:00,,0829.0,4.99,0.00,30.0,28.3,00.0,38.8,31.8,20.6,0000.0,0006.06,0003.13,0002.72
2022-10-03 07:41:00,,0829.1,5.01,0.00,30.0,28.4,00.0,38.8,31.8,20.7,0000.0,0005.91,0003.10,0002.70
2022-10-03 07:42:00,,0829.1,4.99,0.00,30.0,28.4,00.0,38.8,31.7,20.8,0000.0,0005.69,0003.09,0002.70
2022-10-03 07:43:00,,0829.0,5.00,0.00,30.0,28.3,00.0,38.8,31.7,20.9,0000.0,0005.75,0003.10,0002.71
2022-10-03 07:44:00,,0829.0,5.01,0.00,30.0,28.4,00.0,38.8,31.7,21.0,0000.0,0005.75,0003.11,0002.72
2022-10-03 07:45:00,,0829.1,4.98,0.00,30.0,28.4,00.0,38.8,31.7,21.2,0000.0,0005.45,0003.12,0002.72
2022-10-03 07:46:00,,0829.1,5.00,0.00,30.0,28.4,00.0,38.8,31.8,21.3,0000.0,0005.39,0003.11,0002.73
2022-10-03 07:47:00,,0829.1,5.00,0.00,30.0,28.3,00.0,38.8,31.8,21.6,0000.0,0005.40,0003.15,0002.75
2022-10-03 07:48:00,,0829.1,5.00,0.00,30.0,28.3,00.0,38.8,31.7,21.8,0000.0,0005.74,0003.19,0002.79
2022-10-03 07:49:00,,0829.1,4.99,0.00,30.0,28.3,00.0,38.8,31.8,21.9,0000.0,0005.73,0003.19,0002.81
2022-10-03 07:50:00,,0829.1,5.01,0.00,29.9,28.3,00.0,38.8,31.7,21.9,0000.0,0005.92,0003.24,0002.86
2022-10-03 07:51:00,,0829.0,5.00,0.00,29.9,28.3,00.0,38.8,31.7,22.0,0000.0,0005.99,0003.30,0002.91
2022-10-03 07:52:00,,0829.0,4.99,0.00,29.9,28.3,00.0,38.8,31.7,22.0,0000.0,0006.18,0003.35,0002.94
2022-10-03 07:53:00,,0829.0,5.00,0.00,29.9,28.3,00.0,38.8,31.7,22.2,0000.0,0006.30,0003.39,0002.99
2022-10-03 07:54:00,,0829.0,5.00,0.00,29.9,28.3,00.0,38.8,31.7,22.3,0000.0,0006.84,0003.42,0003.06
2022-10-03 07:55:00,,0829.0,4.99,0.00,29.9,28.3,00.0,38.7,31.7,22.4,0000.0,0007.45,0003.47,0003.12
2022-10-03 07:56:00,,0829.0,5.01,0.00,29.9,28.3,00.0,38.7,31.7,22.4,0000.0,0007.55,0003.53,0003.16
2022-10-03 07:57:00,,0828.9,4.99,0.00,29.9,28.3,00.0,38.7,31.7,22.6,0000.0,0007.89,0003.58,0003.20
2022-10-03 07:58:00,,0829.0,5.00,0.00,29.9,28.3,00.0,38.7,31.7,22.6,0000.0,0008.02,0003.63,0003.24
2022-10-03 07:59:00,,0829.0,5.01,0.00,29.9,28.3,00.0,38.7,31.7,22.7,0000.0,0007.94,0003.66,0003.28
